SL-6 R/B(2), 12384

Orbit data source: Space-Track

SL-6 R/B(2), 12384 is space debris in HEO originally from a launch on Tue, 31 Mar 1981 UTC launched from the Plesetsk Missile And Space Complex (PKMTR). Debris objects in space refer to the collection of defunct objects orbiting the Earth. Examples of debris include non-operational satellites, rocket bodies, and fragments generated from explosions, collisions, or faulty payload assembly.

Loading next visibility...
Identifier
12384, 1981-031D
Orbit
HEO
Country
Flag of CISCIS
Related business
Manufacturer
NPO Energiya
Mission
Spacecraft
Bus & Motor
BLOK-L, Unknown motor
Mass
~900 kg wet, ~900 kg dry
Launch date (UTC)
1981-03-31 (45 years ago)
Launch vehicle
Unknown
Launch site
Plesetsk Missile And Space Complex (PKMTR)
Object type
Payload
Rocket body
Debris
Shape & HBR
Unknown
Radar Cross Section
Large (>1 m²)

Expand to show TLE details & history
Last TLE update: 16 hours ago

TLE from 16 hours ago
0 SL-6 R/B(2)
1 12384U 81031D   26035.38380743  .00000370  00000-0  00000+0 0  9992
2 12384  67.7002  78.8455 6168821   2.0084 359.7824  2.03531819333419
Epoch: 2026-02-04T09:12Z
TLE epoch observation values (Epoch: 2026-02-04T09:12:40.961Z)
Latitude
-0.00025°
Longitude
166.13052°
Altitude
3,717.135 km
Speed
7.989 km/s
True Right ascension
05h 15m 24s
True Declination
0° 00' 01"
Sunlit
Object was in daylight at epoch
Visualization orbit readout
Latitude
Unknown
Longitude
Unknown
Altitude
Unknown
Speed
Unknown
Apparent Right ascension
Unknown
Apparent Declination
Unknown
Sunlit
N/A
Visualization observer readout
Local Sidereal Time
03:04:57
Azimuth
Unknown
Elevation
Unknown
Doppler factor
Unknown
Orbital elements
Apogee altitude
36,146.715 km
Perigee altitude
3,698.066 km
Semi-major axis
26,300.527 km
Eccentricity
0.61688
Inclination
67.7002°
RAAN
78.8455°
Arg. of periapsis
2.0084°
True anomaly
358.83325°
Mean anomaly
359.7824°
Eccentric anomaly
359.43204°
Mean motion
0.50886 °/min
Orbital period
707.47 mins
BSTAR
0
Loading maneuver chart data...
Computing Atmospheric mass density...
Loading historical data...
Loading historical data...
Loading historical data...
Loading historical data...
Loading historical data...
Loading historical data...
Loading historical data...

Documentation

Showing up to 5 results
|